Location: Équennes
(49.7375°N, 1.9622°E)
Time: 10:11:42
(UTC+00:00)

Cosmos 1656 - Pass Details

Date: 03 October 2023
Orbit: 797 x 849 km, 71.1° (Epoch: 10 December)

Event Time Altitude Azimuth Distance (km) Brightness Sun altitude
Rises 22:41:22 0° 330° (NNW) 3,318 7.6 -42.7°
Reaches altitude 10° 22:43:47 10° 329° (NNW) 2,387 6.6 -42.8°
Enters shadow 22:44:39 15° 328° (NNW) 2,060 6.2 -42.9°
